Time,TemperatureF,DewpointF,PressureIn,WindDirection,WindDirectionDegrees,WindSpeedMPH,WindSpeedGustMPH,Humidity,HourlyPrecipIn,Conditions,Clouds,dailyrainin,SoftwareType,DateUTC
2013-01-02 00:03:00,10.9,-7.6,30.06,North,0,0.0,0.0,42,0.00,,,-99.99,VWS V12.07,2013-01-02 06:03:00,
2013-01-02 00:09:00,11.1,-7.5,30.06,North,0,0.0,0.0,42,0.00,,,-99.99,VWS V12.07,2013-01-02 06:09:00,
2013-01-02 00:18:00,11.3,-7.3,30.06,North,0,0.0,0.0,42,0.00,,,-99.99,VWS V12.07,2013-01-02 06:18:00,
2013-01-02 00:23:00,11.5,-7.2,30.06,North,0,0.0,0.0,42,0.00,,,-99.99,VWS V12.07,2013-01-02 06:23:00,
2013-01-02 00:28:00,11.7,-7.0,30.06,North,0,0.0,0.0,42,0.00,,,-99.99,VWS V12.07,2013-01-02 06:28:00,
2013-01-02 00:39:00,11.7,-7.0,30.06,North,0,0.0,0.0,42,0.00,,,-99.99,VWS V12.07,2013-01-02 06:39:00,
2013-01-02 00:48:00,11.8,-6.8,30.06,North,0,0.0,0.0,42,0.00,,,-99.99,VWS V12.07,2013-01-02 06:48:00,
2013-01-02 00:53:00,12.0,-6.7,30.06,North,0,0.0,0.0,42,0.00,,,-99.99,VWS V12.07,2013-01-02 06:53:00,
2013-01-02 00:59:00,12.2,-6.5,30.06,North,0,0.0,0.0,42,0.00,,,-99.99,VWS V12.07,2013-01-02 06:59:00,
2013-01-02 01:08:00,12.6,-6.2,30.06,North,0,0.0,0.0,42,0.00,,,-99.99,VWS V12.07,2013-01-02 07:08:00,
2013-01-02 01:13:00,12.7,-6.0,30.06,North,0,0.0,0.0,42,0.00,,,-99.99,VWS V12.07,2013-01-02 07:13:00,
2013-01-02 01:18:00,12.7,-6.0,30.06,North,0,0.0,0.0,42,0.00,,,-99.99,VWS V12.07,2013-01-02 07:18:00,
2013-01-02 01:23:00,12.7,-6.0,30.06,North,0,0.0,0.0,42,0.00,,,-99.99,VWS V12.07,2013-01-02 07:23:00,
2013-01-02 01:29:00,12.7,-6.0,30.06,North,0,0.0,0.0,42,0.00,,,-99.99,VWS V12.07,2013-01-02 07:29:00,
2013-01-02 01:38:00,12.9,-5.8,30.06,North,0,0.0,0.0,42,0.00,,,-99.99,VWS V12.07,2013-01-02 07:38:00,
2013-01-02 01:43:00,13.3,-5.5,30.06,North,0,0.0,0.0,42,0.00,,,-99.99,VWS V12.07,2013-01-02 07:43:00,
2013-01-02 01:48:00,13.5,-5.3,30.06,North,0,0.0,0.0,42,0.00,,,-99.99,VWS V12.07,2013-01-02 07:48:00,
2013-01-02 01:58:00,13.6,-5.2,30.06,North,0,0.0,0.0,42,0.00,,,-99.99,VWS V12.07,2013-01-02 07:58:00,
2013-01-02 02:03:00,13.6,-5.2,30.06,North,0,0.0,0.0,42,0.00,,,-99.99,VWS V12.07,2013-01-02 08:03:00,
2013-01-02 02:08:00,13.8,-5.0,30.06,North,0,0.0,0.0,42,0.00,,,-99.99,VWS V12.07,2013-01-02 08:08:00,
2013-01-02 02:13:00,13.6,-5.2,30.06,North,0,0.0,0.0,42,0.00,,,-99.99,VWS V12.07,2013-01-02 08:13:00,
2013-01-02 02:19:00,13.6,-5.2,30.09,North,0,0.0,0.0,42,0.00,,,-99.99,VWS V12.07,2013-01-02 08:19:00,
2013-01-02 02:28:00,13.8,-5.0,30.09,North,0,0.0,0.0,42,0.00,,,-99.99,VWS V12.07,2013-01-02 08:28:00,
2013-01-02 02:33:00,14.0,-3.0,30.09,North,0,0.0,0.0,46,0.00,,,-99.99,VWS V12.07,2013-01-02 08:33:00,
2013-01-02 02:38:00,14.2,-2.8,30.09,North,0,0.0,0.0,46,0.00,,,-99.99,VWS V12.07,2013-01-02 08:38:00,
2013-01-02 02:43:00,14.4,-2.6,30.09,North,0,0.0,0.0,46,0.00,,,-99.99,VWS V12.07,2013-01-02 08:43:00,
2013-01-02 02:49:00,14.4,-2.6,30.09,North,0,0.0,0.0,46,0.00,,,-99.99,VWS V12.07,2013-01-02 08:49:00,
2013-01-02 02:58:00,14.5,-2.5,30.09,North,0,0.0,0.0,46,0.00,,,-99.99,VWS V12.07,2013-01-02 08:58:00,
2013-01-02 03:08:00,14.7,-2.3,30.09,North,0,0.0,0.0,46,0.00,,,-99.99,VWS V12.07,2013-01-02 09:08:00,
2013-01-02 03:13:00,14.9,-2.1,30.09,North,0,0.0,0.0,46,0.00,,,-99.99,VWS V12.07,2013-01-02 09:13:00,
2013-01-02 03:19:00,15.1,-2.0,30.09,North,0,0.0,0.0,46,0.00,,,-99.99,VWS V12.07,2013-01-02 09:19:00,
2013-01-02 03:28:00,15.3,-1.3,30.09,North,0,0.0,0.0,47,0.00,,,-99.99,VWS V12.07,2013-01-02 09:28:00,
2013-01-02 03:33:00,15.3,-1.3,30.06,North,0,0.0,0.0,47,0.00,,,-99.99,VWS V12.07,2013-01-02 09:33:00,
2013-01-02 03:38:00,15.3,-1.3,30.06,North,0,0.0,0.0,47,0.00,,,-99.99,VWS V12.07,2013-01-02 09:38:00,
2013-01-02 03:43:00,15.3,-1.3,30.06,North,0,0.0,0.0,47,0.00,,,-99.99,VWS V12.07,2013-01-02 09:43:00,
2013-01-02 03:49:00,15.3,-1.3,30.09,North,0,0.0,0.0,47,0.00,,,-99.99,VWS V12.07,2013-01-02 09:49:00,
2013-01-02 03:58:00,15.6,-1.0,30.09,North,0,0.0,0.0,47,0.00,,,-99.99,VWS V12.07,2013-01-02 09:58:00,
2013-01-02 04:03:00,15.8,-0.9,30.09,North,0,0.0,0.0,47,0.00,,,-99.99,VWS V12.07,2013-01-02 10:03:00,
2013-01-02 04:08:00,15.8,-0.9,30.06,North,0,0.0,0.0,47,0.00,,,-99.99,VWS V12.07,2013-01-02 10:08:00,
2013-01-02 04:13:00,15.8,-0.9,30.06,North,0,0.0,0.0,47,0.00,,,-99.99,VWS V12.07,2013-01-02 10:13:00,
2013-01-02 04:18:00,16.0,-0.7,30.06,North,0,0.0,0.0,47,0.00,,,-99.99,VWS V12.07,2013-01-02 10:18:00,
2013-01-02 04:24:00,16.2,-0.5,30.06,North,0,0.0,0.0,47,0.00,,,-99.99,VWS V12.07,2013-01-02 10:24:00,
2013-01-02 04:33:00,16.3,0.1,30.06,North,0,0.0,0.0,48,0.00,,,-99.99,VWS V12.07,2013-01-02 10:33:00,
2013-01-02 04:38:00,16.5,0.3,30.06,North,0,0.0,0.0,48,0.00,,,-99.99,VWS V12.07,2013-01-02 10:38:00,
2013-01-02 04:43:00,16.5,0.3,30.06,North,0,0.0,0.0,48,0.00,,,-99.99,VWS V12.07,2013-01-02 10:43:00,
2013-01-02 04:49:00,16.7,0.4,30.06,North,0,0.0,0.0,48,0.00,,,-99.99,VWS V12.07,2013-01-02 10:49:00,
2013-01-02 04:58:00,16.9,0.6,30.06,North,0,0.0,0.0,48,0.00,,,-99.99,VWS V12.07,2013-01-02 10:58:00,
2013-01-02 05:03:00,16.9,0.6,30.06,North,0,0.0,0.0,48,0.00,,,-99.99,VWS V12.07,2013-01-02 11:03:00,
2013-01-02 05:08:00,17.1,1.2,30.06,North,0,0.0,0.0,49,0.00,,,-99.99,VWS V12.07,2013-01-02 11:08:00,
2013-01-02 05:13:00,17.1,1.2,30.06,North,0,0.0,0.0,49,0.00,,,-99.99,VWS V12.07,2013-01-02 11:13:00,
2013-01-02 05:19:00,17.4,1.5,30.06,North,0,0.0,0.0,49,0.00,,,-99.99,VWS V12.07,2013-01-02 11:19:00,
2013-01-02 05:28:00,17.6,1.7,30.06,North,0,0.0,0.0,49,0.00,,,-99.99,VWS V12.07,2013-01-02 11:28:00,
2013-01-02 05:33:00,17.8,1.9,30.06,North,0,0.0,0.0,49,0.00,,,-99.99,VWS V12.07,2013-01-02 11:33:00,
2013-01-02 05:38:00,17.8,1.9,30.06,North,0,0.0,0.0,49,0.00,,,-99.99,VWS V12.07,2013-01-02 11:38:00,
2013-01-02 05:43:00,18.1,2.2,30.06,North,0,0.0,0.0,49,0.00,,,-99.99,VWS V12.07,2013-01-02 11:43:00,
2013-01-02 05:49:00,18.1,2.2,30.06,North,0,0.0,0.0,49,0.00,,,-99.99,VWS V12.07,2013-01-02 11:49:00,
2013-01-02 05:58:00,18.5,3.0,30.06,North,0,0.0,0.0,50,0.00,,,-99.99,VWS V12.07,2013-01-02 11:58:00,
2013-01-02 06:03:00,18.5,3.0,30.06,North,0,0.0,0.0,50,0.00,,,-99.99,VWS V12.07,2013-01-02 12:03:00,
2013-01-02 06:08:00,18.3,2.8,30.06,North,0,0.0,0.0,50,0.00,,,-99.99,VWS V12.07,2013-01-02 12:08:00,
2013-01-02 06:14:00,18.5,3.0,30.06,North,0,0.0,0.0,50,0.00,,,-99.99,VWS V12.07,2013-01-02 12:14:00,
2013-01-02 06:19:00,18.5,3.0,30.06,North,0,0.0,0.0,50,0.00,,,-99.99,VWS V12.07,2013-01-02 12:19:00,
2013-01-02 06:28:00,18.5,3.0,30.06,North,0,0.0,0.0,50,0.00,,,-99.99,VWS V12.07,2013-01-02 12:28:00,
2013-01-02 06:33:00,18.7,3.6,30.06,North,0,0.0,0.0,51,0.00,,,-99.99,VWS V12.07,2013-01-02 12:33:00,
2013-01-02 06:38:00,18.7,3.6,30.06,North,0,0.0,0.0,51,0.00,,,-99.99,VWS V12.07,2013-01-02 12:38:00,
2013-01-02 06:48:00,18.9,3.7,30.06,North,0,0.0,0.0,51,0.00,,,-99.99,VWS V12.07,2013-01-02 12:48:00,
2013-01-02 06:53:00,19.0,3.9,30.06,North,0,0.0,0.0,51,0.00,,,-99.99,VWS V12.07,2013-01-02 12:53:00,
2013-01-02 06:58:00,19.2,4.1,30.06,North,0,0.0,0.0,51,0.00,,,-99.99,VWS V12.07,2013-01-02 12:58:00,
2013-01-02 07:03:00,19.2,4.1,30.06,North,0,0.0,0.0,51,0.00,,,-99.99,VWS V12.07,2013-01-02 13:03:00,
2013-01-02 07:08:00,19.0,4.3,30.06,North,0,0.0,0.0,52,0.00,,,-99.99,VWS V12.07,2013-01-02 13:08:00,
2013-01-02 07:13:00,19.0,4.3,30.06,North,0,0.0,0.0,52,0.00,,,-99.99,VWS V12.07,2013-01-02 13:13:00,
2013-01-02 07:23:00,19.2,4.9,30.09,North,0,0.0,0.0,53,0.00,,,-99.99,VWS V12.07,2013-01-02 13:23:00,
2013-01-02 07:28:00,19.2,4.9,30.09,North,0,0.0,0.0,53,0.00,,,-99.99,VWS V12.07,2013-01-02 13:28:00,
2013-01-02 07:33:00,19.2,4.9,30.09,North,0,0.0,0.0,53,0.00,,,-99.99,VWS V12.07,2013-01-02 13:33:00,
2013-01-02 07:38:00,19.2,4.9,30.09,North,0,0.0,0.0,53,0.00,,,-99.99,VWS V12.07,2013-01-02 13:38:00,
2013-01-02 07:44:00,19.4,5.1,30.09,North,0,0.0,0.0,53,0.00,,,-99.99,VWS V12.07,2013-01-02 13:44:00,
2013-01-02 07:53:00,19.4,5.1,30.09,North,0,0.0,0.0,53,0.00,,,-99.99,VWS V12.07,2013-01-02 13:53:00,
2013-01-02 07:58:00,19.4,5.5,30.09,North,0,0.0,0.0,54,0.00,,,-99.99,VWS V12.07,2013-01-02 13:58:00,
2013-01-02 08:03:00,19.6,5.2,30.09,North,0,0.0,0.0,53,0.00,,,-99.99,VWS V12.07,2013-01-02 14:03:00,
2013-01-02 08:08:00,19.6,5.2,30.09,North,0,0.0,0.0,53,0.00,,,-99.99,VWS V12.07,2013-01-02 14:08:00,
2013-01-02 08:14:00,19.8,5.8,30.09,North,0,0.0,0.0,54,0.00,,,-99.99,VWS V12.07,2013-01-02 14:14:00,
2013-01-02 08:23:00,19.9,6.0,30.09,North,0,0.0,0.0,54,0.00,,,-99.99,VWS V12.07,2013-01-02 14:23:00,
2013-01-02 08:28:00,20.1,6.2,30.09,North,0,0.0,0.0,54,0.00,,,-99.99,VWS V12.07,2013-01-02 14:28:00,
2013-01-02 08:33:00,20.1,6.2,30.09,North,0,0.0,0.0,54,0.00,,,-99.99,VWS V12.07,2013-01-02 14:33:00,
2013-01-02 08:38:00,20.3,6.3,30.09,North,0,0.0,0.0,54,0.00,,,-99.99,VWS V12.07,2013-01-02 14:38:00,
2013-01-02 08:44:00,20.3,6.3,30.09,North,0,0.0,0.0,54,0.00,,,-99.99,VWS V12.07,2013-01-02 14:44:00,
2013-01-02 08:53:00,20.5,6.5,30.09,North,0,0.0,0.0,54,0.00,,,-99.99,VWS V12.07,2013-01-02 14:53:00,
2013-01-02 08:58:00,20.7,7.1,30.09,North,0,0.0,0.0,55,0.00,,,-99.99,VWS V12.07,2013-01-02 14:58:00,
2013-01-02 09:03:00,21.0,7.4,30.09,North,0,0.0,0.0,55,0.00,,,-99.99,VWS V12.07,2013-01-02 15:03:00,
2013-01-02 09:08:00,21.2,7.6,30.09,North,0,0.0,0.0,55,0.00,,,-99.99,VWS V12.07,2013-01-02 15:08:00,
2013-01-02 09:14:00,21.2,7.6,30.09,North,0,0.0,0.0,55,0.00,,,-99.99,VWS V12.07,2013-01-02 15:14:00,
2013-01-02 09:23:00,21.7,8.1,30.09,North,0,0.0,0.0,55,0.00,,,-99.99,VWS V12.07,2013-01-02 15:23:00,
2013-01-02 09:28:00,21.7,7.7,30.09,North,0,0.0,0.0,54,0.00,,,-99.99,VWS V12.07,2013-01-02 15:28:00,
2013-01-02 09:33:00,21.9,7.8,30.09,North,0,0.0,0.0,54,0.00,,,-99.99,VWS V12.07,2013-01-02 15:33:00,
2013-01-02 09:38:00,21.9,7.8,30.09,North,0,0.0,0.0,54,0.00,,,-99.99,VWS V12.07,2013-01-02 15:38:00,
2013-01-02 09:44:00,22.3,8.2,30.09,North,0,0.0,0.0,54,0.00,,,-99.99,VWS V12.07,2013-01-02 15:44:00,
2013-01-02 09:53:00,22.8,8.7,30.09,North,0,0.0,0.0,54,0.00,,,-99.99,VWS V12.07,2013-01-02 15:53:00,
2013-01-02 09:58:00,22.8,8.3,30.09,North,0,0.0,0.0,53,0.00,,,-99.99,VWS V12.07,2013-01-02 15:58:00,
2013-01-02 10:08:00,22.6,7.7,30.09,North,0,0.0,0.0,52,0.00,,,-99.99,VWS V12.07,2013-01-02 16:08:00,
2013-01-02 10:19:00,22.6,7.2,30.09,North,0,0.0,0.0,51,0.00,,,-99.99,VWS V12.07,2013-01-02 16:19:00,
2013-01-02 10:28:00,22.8,6.5,30.09,North,0,0.0,0.0,49,0.00,,,-99.99,VWS V12.07,2013-01-02 16:28:00,
2013-01-02 10:33:00,22.8,6.1,30.09,North,0,0.0,0.0,48,0.00,,,-99.99,VWS V12.07,2013-01-02 16:33:00,
2013-01-02 10:38:00,23.0,6.2,30.09,North,0,0.0,0.0,48,0.00,,,-99.99,VWS V12.07,2013-01-02 16:38:00,
2013-01-02 10:43:00,23.2,5.9,30.09,North,0,0.0,0.0,47,0.00,,,-99.99,VWS V12.07,2013-01-02 16:43:00,
2013-01-02 10:49:00,23.4,6.1,30.06,North,0,0.0,0.0,47,0.00,,,-99.99,VWS V12.07,2013-01-02 16:49:00,
2013-01-02 10:54:00,23.4,6.1,30.06,North,0,0.0,0.0,47,0.00,,,-99.99,VWS V12.07,2013-01-02 16:54:00,
2013-01-02 11:03:00,23.5,5.8,30.06,North,0,0.0,0.0,46,0.00,,,-99.99,VWS V12.07,2013-01-02 17:03:00,
2013-01-02 11:08:00,23.5,5.3,30.06,North,0,0.0,0.0,45,0.00,,,-99.99,VWS V12.07,2013-01-02 17:08:00,
2013-01-02 11:13:00,23.7,5.5,30.06,North,0,0.0,0.0,45,0.00,,,-99.99,VWS V12.07,2013-01-02 17:13:00,
2013-01-02 11:19:00,24.1,5.8,30.06,North,0,0.0,0.0,45,0.00,,,-99.99,VWS V12.07,2013-01-02 17:19:00,
2013-01-02 11:28:00,24.4,5.7,30.06,North,0,0.0,0.0,44,0.00,,,-99.99,VWS V12.07,2013-01-02 17:28:00,
2013-01-02 11:33:00,24.4,5.7,30.06,North,0,0.0,0.0,44,0.00,,,-99.99,VWS V12.07,2013-01-02 17:33:00,
2013-01-02 11:38:00,24.6,5.8,30.06,North,0,0.0,0.0,44,0.00,,,-99.99,VWS V12.07,2013-01-02 17:38:00,
2013-01-02 11:43:00,24.8,6.0,30.06,North,0,0.0,0.0,44,0.00,,,-99.99,VWS V12.07,2013-01-02 17:43:00,
2013-01-02 11:48:00,24.6,5.8,30.06,North,0,0.0,0.0,44,0.00,,,-99.99,VWS V12.07,2013-01-02 17:48:00,
2013-01-02 11:54:00,24.6,5.8,30.03,North,0,0.0,0.0,44,0.00,,,-99.99,VWS V12.07,2013-01-02 17:54:00,
2013-01-02 12:03:00,24.6,5.8,30.03,North,0,0.0,0.0,44,0.00,,,-99.99,VWS V12.07,2013-01-02 18:03:00,
2013-01-02 12:08:00,24.6,5.3,30.03,North,0,0.0,0.0,43,0.00,,,-99.99,VWS V12.07,2013-01-02 18:08:00,
2013-01-02 12:13:00,24.6,5.3,30.03,North,0,0.0,0.0,43,0.00,,,-99.99,VWS V12.07,2013-01-02 18:13:00,
2013-01-02 12:19:00,24.8,5.5,30.03,North,0,0.0,0.0,43,0.00,,,-99.99,VWS V12.07,2013-01-02 18:19:00,
2013-01-02 12:28:00,24.8,5.5,30.03,North,0,0.0,0.0,43,0.00,,,-99.99,VWS V12.07,2013-01-02 18:28:00,
2013-01-02 12:33:00,25.2,5.8,30.00,North,0,0.0,0.0,43,0.00,,,-99.99,VWS V12.07,2013-01-02 18:33:00,
2013-01-02 12:43:00,25.3,6.0,30.00,North,0,0.0,0.0,43,0.00,,,-99.99,VWS V12.07,2013-01-02 18:43:00,
2013-01-02 12:53:00,25.3,5.5,30.03,North,0,0.0,0.0,42,0.00,,,-99.99,VWS V12.07,2013-01-02 18:53:00,
2013-01-02 12:58:00,25.3,5.5,30.03,North,0,0.0,0.0,42,0.00,,,-99.99,VWS V12.07,2013-01-02 18:58:00,
2013-01-02 13:03:00,25.2,5.3,30.00,North,0,0.0,0.0,42,0.00,,,-99.99,VWS V12.07,2013-01-02 19:03:00,
2013-01-02 13:09:00,25.2,5.3,30.00,North,0,0.0,0.0,42,0.00,,,-99.99,VWS V12.07,2013-01-02 19:09:00,
2013-01-02 13:19:00,25.5,5.6,30.00,North,0,0.0,0.0,42,0.00,,,-99.99,VWS V12.07,2013-01-02 19:19:00,
2013-01-02 13:28:00,25.5,5.6,30.00,North,0,0.0,0.0,42,0.00,,,-99.99,VWS V12.07,2013-01-02 19:28:00,
2013-01-02 13:33:00,25.7,5.8,30.00,North,0,0.0,0.0,42,0.00,,,-99.99,VWS V12.07,2013-01-02 19:33:00,
2013-01-02 13:38:00,25.7,5.8,30.00,North,0,0.0,0.0,42,0.00,,,-99.99,VWS V12.07,2013-01-02 19:38:00,
2013-01-02 13:49:00,25.7,5.8,30.00,North,0,0.0,0.0,42,0.00,,,-99.99,VWS V12.07,2013-01-02 19:49:00,
2013-01-02 13:58:00,25.9,5.4,30.00,North,0,0.0,0.0,41,0.00,,,-99.99,VWS V12.07,2013-01-02 19:58:00,
2013-01-02 14:03:00,25.9,5.4,30.00,North,0,0.0,0.0,41,0.00,,,-99.99,VWS V12.07,2013-01-02 20:03:00,
2013-01-02 14:08:00,26.1,5.6,30.00,North,0,0.0,0.0,41,0.00,,,-99.99,VWS V12.07,2013-01-02 20:08:00,
2013-01-02 14:14:00,26.1,5.6,30.00,North,0,0.0,0.0,41,0.00,,,-99.99,VWS V12.07,2013-01-02 20:14:00,
2013-01-02 14:23:00,26.2,5.8,30.00,North,0,0.0,0.0,41,0.00,,,-99.99,VWS V12.07,2013-01-02 20:23:00,
2013-01-02 14:28:00,26.4,5.9,30.00,North,0,0.0,0.0,41,0.00,,,-99.99,VWS V12.07,2013-01-02 20:28:00,
2013-01-02 14:38:00,26.4,5.4,30.00,North,0,0.0,0.0,40,0.00,,,-99.99,VWS V12.07,2013-01-02 20:38:00,
2013-01-02 14:49:00,26.1,4.5,30.00,North,0,0.0,0.0,39,0.00,,,-99.99,VWS V12.07,2013-01-02 20:49:00,
2013-01-02 14:58:00,26.4,4.8,30.00,North,0,0.0,0.0,39,0.00,,,-99.99,VWS V12.07,2013-01-02 20:58:00,
2013-01-02 15:03:00,26.2,4.7,30.00,North,0,0.0,0.0,39,0.00,,,-99.99,VWS V12.07,2013-01-02 21:03:00,
2013-01-02 15:08:00,26.1,4.5,30.00,North,0,0.0,0.0,39,0.00,,,-99.99,VWS V12.07,2013-01-02 21:08:00,
2013-01-02 15:14:00,26.1,5.1,30.00,North,0,0.0,0.0,40,0.00,,,-99.99,VWS V12.07,2013-01-02 21:14:00,
2013-01-02 15:23:00,26.1,5.1,30.00,North,0,0.0,0.0,40,0.00,,,-99.99,VWS V12.07,2013-01-02 21:23:00,
2013-01-02 15:28:00,26.1,5.1,30.00,North,0,0.0,0.0,40,0.00,,,-99.99,VWS V12.07,2013-01-02 21:28:00,
2013-01-02 15:38:00,26.1,5.1,30.00,North,0,0.0,0.0,40,0.00,,,-99.99,VWS V12.07,2013-01-02 21:38:00,
2013-01-02 15:43:00,25.9,4.9,30.00,North,0,0.0,0.0,40,0.00,,,-99.99,VWS V12.07,2013-01-02 21:43:00,
2013-01-02 15:49:00,25.7,5.3,30.00,North,0,0.0,0.0,41,0.00,,,-99.99,VWS V12.07,2013-01-02 21:49:00,
2013-01-02 15:58:00,25.7,5.3,30.00,North,0,0.0,0.0,41,0.00,,,-99.99,VWS V12.07,2013-01-02 21:58:00,
2013-01-02 16:03:00,25.7,5.3,30.00,North,0,0.0,0.0,41,0.00,,,-99.99,VWS V12.07,2013-01-02 22:03:00,
2013-01-02 16:09:00,25.7,5.3,30.00,North,0,0.0,0.0,41,0.00,,,-99.99,VWS V12.07,2013-01-02 22:09:00,
2013-01-02 16:19:00,25.5,5.6,30.00,North,0,0.0,0.0,42,0.00,,,-99.99,VWS V12.07,2013-01-02 22:19:00,
2013-01-02 16:28:00,25.5,5.6,30.00,North,0,0.0,0.0,42,0.00,,,-99.99,VWS V12.07,2013-01-02 22:28:00,
2013-01-02 16:34:00,25.5,5.6,30.00,North,0,0.0,0.0,42,0.00,,,-99.99,VWS V12.07,2013-01-02 22:34:00,
2013-01-02 16:43:00,25.2,5.3,30.00,North,0,0.0,0.0,42,0.00,,,-99.99,VWS V12.07,2013-01-02 22:43:00,
2013-01-02 16:49:00,24.8,5.0,30.00,North,0,0.0,0.0,42,0.00,,,-99.99,VWS V12.07,2013-01-02 22:49:00,
2013-01-02 16:58:00,24.4,5.2,30.00,North,0,0.0,0.0,43,0.00,,,-99.99,VWS V12.07,2013-01-02 22:58:00,
2013-01-02 17:03:00,24.4,5.2,30.00,North,0,0.0,0.0,43,0.00,,,-99.99,VWS V12.07,2013-01-02 23:03:00,
2013-01-02 17:13:00,24.8,5.5,30.00,North,0,0.0,0.0,43,0.00,,,-99.99,VWS V12.07,2013-01-02 23:13:00,
2013-01-02 17:19:00,25.2,5.8,30.00,North,0,0.0,0.0,43,0.00,,,-99.99,VWS V12.07,2013-01-02 23:19:00,
2013-01-02 17:28:00,25.2,5.8,30.00,North,0,0.0,0.0,43,0.00,,,-99.99,VWS V12.07,2013-01-02 23:28:00,
2013-01-02 17:33:00,25.2,5.8,30.00,North,0,0.0,0.0,43,0.00,,,-99.99,VWS V12.07,2013-01-02 23:33:00,
2013-01-02 17:38:00,25.3,6.0,30.00,North,0,0.0,0.0,43,0.00,,,-99.99,VWS V12.07,2013-01-02 23:38:00,
2013-01-02 17:43:00,25.5,6.2,30.00,North,0,0.0,0.0,43,0.00,,,-99.99,VWS V12.07,2013-01-02 23:43:00,
2013-01-02 17:49:00,25.7,6.3,30.00,North,0,0.0,0.0,43,0.00,,,-99.99,VWS V12.07,2013-01-02 23:49:00,
2013-01-02 17:58:00,25.7,6.3,30.00,North,0,0.0,0.0,43,0.00,,,-99.99,VWS V12.07,2013-01-02 23:58:00,
2013-01-02 18:03:00,25.9,6.5,30.00,North,0,0.0,0.0,43,0.00,,,-99.99,VWS V12.07,2013-01-03 00:03:00,
2013-01-02 18:08:00,25.7,6.3,30.00,North,0,0.0,0.0,43,0.00,,,-99.99,VWS V12.07,2013-01-03 00:08:00,
2013-01-02 18:18:00,26.1,7.2,30.00,North,0,0.0,0.0,44,0.00,,,-99.99,VWS V12.07,2013-01-03 00:18:00,
2013-01-02 18:23:00,26.1,7.2,30.00,North,0,0.0,0.0,44,0.00,,,-99.99,VWS V12.07,2013-01-03 00:23:00,
2013-01-02 18:28:00,26.1,7.2,30.00,North,0,0.0,0.0,44,0.00,,,-99.99,VWS V12.07,2013-01-03 00:28:00,
2013-01-02 18:34:00,26.1,7.2,30.00,North,0,0.0,0.0,44,0.00,,,-99.99,VWS V12.07,2013-01-03 00:34:00,
2013-01-02 18:48:00,26.6,7.6,30.00,North,0,0.0,0.0,44,0.00,,,-99.99,VWS V12.07,2013-01-03 00:48:00,
2013-01-02 18:53:00,26.6,7.6,30.00,North,0,0.0,0.0,44,0.00,,,-99.99,VWS V12.07,2013-01-03 00:53:00,
2013-01-02 18:58:00,26.8,7.8,30.00,North,0,0.0,0.0,44,0.00,,,-99.99,VWS V12.07,2013-01-03 00:58:00,
2013-01-02 19:08:00,26.8,8.3,30.00,North,0,0.0,0.0,45,0.00,,,-99.99,VWS V12.07,2013-01-03 01:08:00,
2013-01-02 19:13:00,26.8,8.3,30.00,North,0,0.0,0.0,45,0.00,,,-99.99,VWS V12.07,2013-01-03 01:13:00,
2013-01-02 19:19:00,26.8,8.3,30.00,North,0,0.0,0.0,45,0.00,,,-99.99,VWS V12.07,2013-01-03 01:19:00,
2013-01-02 19:28:00,26.8,8.3,30.00,North,0,0.0,0.0,45,0.00,,,-99.99,VWS V12.07,2013-01-03 01:28:00,
2013-01-02 19:33:00,26.8,8.8,30.00,North,0,0.0,0.0,46,0.00,,,-99.99,VWS V12.07,2013-01-03 01:33:00,
2013-01-02 19:38:00,26.8,8.8,30.00,North,0,0.0,0.0,46,0.00,,,-99.99,VWS V12.07,2013-01-03 01:38:00,
2013-01-02 19:43:00,26.8,9.3,30.00,North,0,0.0,0.0,47,0.00,,,-99.99,VWS V12.07,2013-01-03 01:43:00,
2013-01-02 19:49:00,27.0,9.4,30.00,North,0,0.0,0.0,47,0.00,,,-99.99,VWS V12.07,2013-01-03 01:49:00,
2013-01-02 19:58:00,27.0,9.4,30.00,North,0,0.0,0.0,47,0.00,,,-99.99,VWS V12.07,2013-01-03 01:58:00,
2013-01-02 20:04:00,27.0,9.9,30.00,North,0,0.0,0.0,48,0.00,,,-99.99,VWS V12.07,2013-01-03 02:04:00,
2013-01-02 20:19:00,27.1,10.5,30.00,North,0,0.0,0.0,49,0.00,,,-99.99,VWS V12.07,2013-01-03 02:19:00,
2013-01-02 20:28:00,27.1,10.5,30.00,North,0,0.0,0.0,49,0.00,,,-99.99,VWS V12.07,2013-01-03 02:28:00,
2013-01-02 20:33:00,27.1,10.5,30.00,North,0,0.0,0.0,49,0.00,,,-99.99,VWS V12.07,2013-01-03 02:33:00,
2013-01-02 20:38:00,27.3,11.1,30.00,North,0,0.0,0.0,50,0.00,,,-99.99,VWS V12.07,2013-01-03 02:38:00,
2013-01-02 20:44:00,27.1,11.0,30.00,North,0,0.0,0.0,50,0.00,,,-99.99,VWS V12.07,2013-01-03 02:44:00,
2013-01-02 20:49:00,27.1,11.0,30.00,North,0,0.0,0.0,50,0.00,,,-99.99,VWS V12.07,2013-01-03 02:49:00,
2013-01-02 20:58:00,27.1,11.4,30.00,North,0,0.0,0.0,51,0.00,,,-99.99,VWS V12.07,2013-01-03 02:58:00,
2013-01-02 21:03:00,27.1,11.4,30.00,North,0,0.0,0.0,51,0.00,,,-99.99,VWS V12.07,2013-01-03 03:03:00,
2013-01-02 21:09:00,27.1,11.4,30.00,North,0,0.0,0.0,51,0.00,,,-99.99,VWS V12.07,2013-01-03 03:09:00,
2013-01-02 21:19:00,27.1,11.9,30.00,North,0,0.0,0.0,52,0.00,,,-99.99,VWS V12.07,2013-01-03 03:19:00,
2013-01-02 21:29:00,27.3,12.0,30.00,North,0,0.0,0.0,52,0.00,,,-99.99,VWS V12.07,2013-01-03 03:29:00,
2013-01-02 21:39:00,27.3,12.0,29.97,North,0,0.0,0.0,52,0.00,,,-99.99,VWS V12.07,2013-01-03 03:39:00,
2013-01-02 21:49:00,27.3,12.0,29.97,North,0,0.0,0.0,52,0.00,,,-99.99,VWS V12.07,2013-01-03 03:49:00,
2013-01-02 21:58:00,27.5,12.6,29.97,North,0,0.0,0.0,53,0.00,,,-99.99,VWS V12.07,2013-01-03 03:58:00,
2013-01-02 22:04:00,27.5,12.6,30.00,North,0,0.0,0.0,53,0.00,,,-99.99,VWS V12.07,2013-01-03 04:04:00,
2013-01-02 22:09:00,27.3,12.5,30.00,North,0,0.0,0.0,53,0.00,,,-99.99,VWS V12.07,2013-01-03 04:09:00,
2013-01-02 22:14:00,27.3,12.5,30.00,North,0,0.0,0.0,53,0.00,,,-99.99,VWS V12.07,2013-01-03 04:14:00,
2013-01-02 22:23:00,27.3,12.5,30.00,North,0,0.0,0.0,53,0.00,,,-99.99,VWS V12.07,2013-01-03 04:23:00,
2013-01-02 22:28:00,27.3,12.5,30.00,North,0,0.0,0.0,53,0.00,,,-99.99,VWS V12.07,2013-01-03 04:28:00,
2013-01-02 22:39:00,27.5,13.1,30.00,North,0,0.0,0.0,54,0.00,,,-99.99,VWS V12.07,2013-01-03 04:39:00,
2013-01-02 22:48:00,27.5,13.1,30.00,North,0,0.0,0.0,54,0.00,,,-99.99,VWS V12.07,2013-01-03 04:48:00,
2013-01-02 22:58:00,27.7,13.2,29.97,North,0,0.0,0.0,54,0.00,,,-99.99,VWS V12.07,2013-01-03 04:58:00,
2013-01-02 23:03:00,27.5,13.1,29.97,North,0,0.0,0.0,54,0.00,,,-99.99,VWS V12.07,2013-01-03 05:03:00,
2013-01-02 23:08:00,27.5,13.1,29.97,North,0,0.0,0.0,54,0.00,,,-99.99,VWS V12.07,2013-01-03 05:08:00,
2013-01-02 23:13:00,27.3,13.3,29.97,North,0,0.0,0.0,55,0.00,,,-99.99,VWS V12.07,2013-01-03 05:13:00,
2013-01-02 23:18:00,27.1,13.1,29.97,North,0,0.0,0.0,55,0.00,,,-99.99,VWS V12.07,2013-01-03 05:18:00,
2013-01-02 23:23:00,27.0,13.0,29.97,North,0,0.0,0.0,55,0.00,,,-99.99,VWS V12.07,2013-01-03 05:23:00,
2013-01-02 23:28:00,27.0,13.0,29.97,North,0,0.0,0.0,55,0.00,,,-99.99,VWS V12.07,2013-01-03 05:28:00,
2013-01-02 23:39:00,27.0,13.0,29.97,North,0,0.0,0.0,55,0.00,,,-99.99,VWS V12.07,2013-01-03 05:39:00,
2013-01-02 23:48:00,27.0,13.4,29.97,North,0,0.0,0.0,56,0.00,,,-99.99,VWS V12.07,2013-01-03 05:48:00,
2013-01-02 23:53:00,27.0,13.4,29.97,North,0,0.0,0.0,56,0.00,,,-99.99,VWS V12.07,2013-01-03 05:53:00,